sat.trackr.live / text

‹ back to catalog

STARLINK-34730

NORAD 64938 · 2025-158G

PAYLOAD ACTIVE UNKNOWN

§ Identity

Operator
Country
US
Launch date
2025-07-27
Launch site
AFWTR
Launch vehicle
Mass (kg)
RCS (m²)

Purposes: comms

External: N2YO · Heavens-Above · Gunter

§ Orbital elements

Epoch: 2026-05-25T03:13:09.988032Z

Period
95.64 min
Inclination
97.4507°
Eccentricity
0.0002352
Mean motion
15.05660774 rev/d
Perigee alt
547.8 km
Apogee alt
551.1 km
Semi-major
6,927.6 km
B*
3.8078e-4
RAAN
9.1294°
Arg perigee
70.2875°
Mean anomaly
289.8606°
Rev number
4,686

§ Raw data

STARLINK-347301 64938U 25158G   26145.13414338  .00005441  00000+0  38078-3 0  99982 64938  97.4507   9.1294 0002352  70.2875 289.8606 15.05660774 46864

JSON: /api/v1/satellites/64938 · /tle

For live sub-satellite position, see the globe view (requires WebGL).

§ Visibility from observer

Set your observer location to see the next 7 days of passes ≥ 10°. The values pass through the URL so the page stays shareable.

No JS? Fill the form by hand. The geolocation button needs JavaScript.